EW3206 Weather Reports


Display with metric or nautical units.
time (UTC)temp
F
wind
direction
speed
MPH
gust
MPH
rain 1hr
in
rain 24hr
in
rain mn
in
humidity
%
barometer
mb
20260903042310 65 206 4.0 13.0 0.00 0.00 0.00 81 13.5
20260903035313 64 281 4.0 10.0 0.00 0.00 0.00 81 14.2
20260903034310 64 248 4.0 11.0 0.00 0.00 0.00 82 14.4
20260903033310 64 239 4.0 11.0 0.00 0.00 0.00 82 14.3
20260903025310 64 277 2.0 9.0 0.00 0.00 0.00 83 14.5
20260903022310 64 244 4.0 11.0 0.00 0.00 0.00 81 14.8
20260903021311 63 278 3.0 8.0 0.00 0.00 0.00 80 14.8
20260903015311 63 247 2.0 7.0 0.00 0.00 0.00 80 14.7
20260903014310 63 240 2.0 6.0 0.00 0.00 0.00 81 15.1
20260903012309 63 240 4.0 10.0 0.00 0.00 0.00 80 15.2
20260903011310 63 235 4.0 10.0 0.00 0.00 0.00 80 15.4
20260903005310 63 278 2.0 8.0 0.00 0.00 0.00 79 15.7
20260903004310 63 202 2.0 11.0 0.00 0.00 0.00 80 15.8
20260903003310 63 269 3.0 13.0 0.00 0.00 0.00 81 15.9
20260903002310 63 172 2.0 3.0 0.00 0.00 0.00 80 16.0
20260902235311 63 217 0.0 3.0 0.00 0.00 0.00 79 16.1
20260902234311 63 209 0.0 3.0 0.00 0.00 0.00 79 16.3
20260902233309 63 240 1.0 6.0 0.00 0.00 0.00 79 16.4
20260902231310 64 244 2.0 4.0 0.00 0.00 0.00 78 16.6
20260902225310 65 241 2.0 13.0 0.00 0.00 0.00 77 16.8
20260902223310 64 263 6.0 15.0 0.00 0.00 0.00 76 16.9
20260902222309 64 230 4.0 10.0 0.00 0.00 0.00 77 16.9
20260902221310 64 202 7.0 20.0 0.00 0.00 0.00 78 17.1
20260902220310 64 233 1.0 3.0 0.00 0.00 0.00 80 17.0
20260902215310 64 238 2.0 8.0 0.00 0.00 0.00 81 17.0
20260902214310 64 176 1.0 4.0 0.00 0.00 0.00 81 16.8
20260902212310 64 205 1.0 3.0 0.00 0.00 0.00 81 16.9
20260902211310 64 220 0.0 3.0 0.00 0.00 0.00 82 17.0
20260902210310 64 240 0.0 3.0 0.00 0.00 0.00 81 17.1
20260902205311 64 225 1.0 4.0 0.00 0.00 0.00 81 17.2
20260902204310 64 214 1.0 3.0 0.00 0.00 0.00 81 17.3
20260902203311 64 200 0.0 4.0 0.00 0.00 0.00 81 17.3
20260902202311 64 234 0.0 2.0 0.00 0.00 0.00 80 17.4
20260902201310 64 234 0.0 3.0 0.00 0.00 0.00 80 17.6
20260902195310 64 228 0.0 2.0 0.00 0.00 0.00 79 17.7
20260902194311 65 228 0.0 2.0 0.00 0.00 0.00 78 17.7
20260902193310 65 228 0.0 1.0 0.00 0.00 0.00 77 17.7
20260902192311 65 227 0.0 2.0 0.00 0.00 0.00 77 17.9
20260902191310 65 225 0.0 2.0 0.00 0.00 0.00 76 17.8
20260902185310 66 243 0.0 3.0 0.00 0.00 0.00 76 17.8
20260902183310 66 251 1.0 3.0 0.00 0.00 0.00 75 17.9
20260902182310 66 247 0.0 3.0 0.00 0.00 0.00 75 18.0
20260902181310 67 251 0.0 4.0 0.00 0.00 0.00 74 17.9
20260902175310 67 262 1.0 6.0 0.00 0.00 0.00 72 18.0
20260902174310 67 269 2.0 7.0 0.00 0.00 0.00 72 18.0
20260902172309 68 266 3.0 8.0 0.00 0.00 0.00 71 17.9
20260902171310 68 263 1.0 8.0 0.00 0.00 0.00 70 17.9
20260902165310 68 303 5.0 10.0 0.00 0.00 0.00 68 18.0
20260902164310 68 275 3.0 12.0 0.00 0.00 0.00 67 17.9
20260902163310 68 278 7.0 12.0 0.00 0.00 0.00 65 17.9
20260902162310 68 296 6.0 16.0 0.00 0.00 0.00 67 17.9
20260902161310 69 318 5.0 10.0 0.00 0.00 0.00 68 17.9
20260902155310 70 272 8.0 14.0 0.00 0.00 0.00 65 18.0
20260902154309 70 278 9.0 14.0 0.00 0.00 0.00 66 18.0
20260902153310 70 283 10.0 18.0 0.00 0.00 0.00 63 18.1
20260902152310 71 290 10.0 15.0 0.00 0.00 0.00 61 18.0
20260902151311 71 277 9.0 16.0 0.00 0.00 0.00 61 18.1
20260902145310 72 265 8.0 17.0 0.00 0.00 0.00 59 18.2
20260902144310 73 310 3.0 9.0 0.00 0.00 0.00 64 18.1
20260902142310 72 270 5.0 14.0 0.00 0.00 0.00 63 18.1
20260902135310 72 304 7.0 13.0 0.00 0.00 0.00 66 18.4
20260902134310 71 256 4.0 11.0 0.00 0.00 0.00 70 18.4
20260902133310 69 246 3.0 9.0 0.00 0.00 0.00 73 18.5
20260902132310 68 269 3.0 4.0 0.00 0.00 0.00 76 18.5
20260902125309 67 0 0.0 0.0 0.00 0.00 0.00 76 18.7
20260902123311 67 0 0.0 0.0 0.00 0.00 0.00 74 18.6
20260902122310 68 0 0.0 0.0 0.00 0.00 0.00 73 18.6
20260902121309 69 0 0.0 0.0 0.00 0.00 0.00 70 18.7
20260902114309 72 0 0.0 0.0 0.00 0.00 0.00 65 18.6
20260902113310 72 0 0.0 0.0 0.00 0.00 0.00 64 18.4
20260902112310 72 0 0.0 0.0 0.00 0.00 0.00 64 18.6
20260902111309 72 0 0.0 0.0 0.00 0.00 0.00 68 18.7
20260902105310 71 0 0.0 0.0 0.00 0.00 0.00 72 18.6